Datetime,RecNbr,WS_mph_Avg,PAR_Den_Avg,WS_mph_S_WVT,WindDir_SD1_WVT,AirTF_Avg,Rain_in_Tot,RH,WindDir_D1_WVT
2022-12-05 00:00:00,115904,2.759,0.669,2.759,0.0,25.48,0.0,81.7,290.3
2022-12-05 00:01:00,115905,3.147,0.669,3.147,0.0,25.5,0.0,81.7,312.1
2022-12-05 00:02:00,115906,3.326,0.0,3.326,0.014,25.34,0.0,81.5,308.2
2022-12-05 00:03:00,115907,3.147,0.0,3.147,0.0,25.23,0.0,81.6,310.0
2022-12-05 00:04:00,115908,2.998,0.669,2.998,0.0,25.07,0.0,81.8,307.6
2022-12-05 00:05:00,115909,2.61,0.0,2.61,0.0,25.01,0.0,82.1,309.3
2022-12-05 00:06:00,115910,2.67,0.0,2.67,0.0,24.9,0.0,82.3,306.8
2022-12-05 00:07:00,115911,2.849,0.0,2.849,0.0,25.01,0.0,83.9,281.6
2022-12-05 00:08:00,115912,2.55,0.669,2.55,0.0,25.28,0.0,85.2,313.0
2022-12-05 00:09:00,115913,2.998,0.0,2.998,0.0,25.61,0.0,84.0,321.0
2022-12-05 00:10:00,115914,2.342,0.0,2.342,0.0,25.67,0.0,83.6,252.0
2022-12-05 00:11:00,115915,1.358,0.0,1.358,0.0,25.78,0.0,83.0,220.1
2022-12-05 00:12:00,115916,1.119,0.0,1.119,0.0,25.78,0.0,82.3,279.6
2022-12-05 00:13:00,115917,0.0,0.0,0.0,0.0,25.72,0.0,82.1,0.0
2022-12-05 00:14:00,115918,1.745,0.0,1.745,0.0,25.72,0.0,82.3,278.2
2022-12-05 00:15:00,115919,1.358,0.0,1.358,0.014,25.83,0.0,82.8,263.8
2022-12-05 00:16:00,115920,2.103,0.669,2.103,0.014,25.94,0.0,83.2,279.7
2022-12-05 00:17:00,115921,2.58,0.0,2.58,0.0,26.07,0.0,82.9,237.5
2022-12-05 00:18:00,115922,2.521,0.0,2.521,0.0,26.21,0.0,82.7,164.0
2022-12-05 00:19:00,115923,2.044,0.0,2.044,0.0,26.26,0.0,82.3,342.3
2022-12-05 00:20:00,115924,1.954,0.669,1.954,0.014,26.32,0.0,81.8,266.5
2022-12-05 00:21:00,115925,2.58,0.0,2.58,0.014,26.38,0.0,82.2,3.61
2022-12-05 00:22:00,115926,2.073,0.0,2.073,0.0,26.43,0.0,81.9,298.3
2022-12-05 00:23:00,115927,2.133,0.0,2.133,0.0,26.48,0.0,81.8,266.5
2022-12-05 00:24:00,115928,2.431,0.0,2.431,0.0,26.43,0.0,81.0,217.3
2022-12-05 00:25:00,115929,1.775,0.669,1.775,0.0,26.32,0.0,80.8,263.0
2022-12-05 00:26:00,115930,0.0,0.669,0.0,0.0,26.21,0.0,80.4,0.0
2022-12-05 00:27:00,115931,0.0,0.669,0.0,0.0,25.94,0.0,80.2,0.0
2022-12-05 00:28:00,115932,0.0,0.669,0.0,0.0,25.83,0.0,80.4,0.0
2022-12-05 00:29:00,115933,0.0,0.669,0.0,0.0,25.66,0.0,81.2,0.0
2022-12-05 00:30:00,115934,0.0,0.0,0.0,0.0,25.69,0.0,81.7,0.0
2022-12-05 00:31:00,115935,0.0,0.0,0.0,0.0,25.74,0.0,82.0,0.0
2022-12-05 00:32:00,115936,0.0,0.0,0.0,0.0,25.72,0.0,81.5,0.0
2022-12-05 00:33:00,115937,0.0,0.669,0.0,0.0,25.61,0.0,81.3,0.0
2022-12-05 00:34:00,115938,0.0,0.0,0.0,0.0,25.58,0.0,81.4,0.0
2022-12-05 00:35:00,115939,0.0,0.669,0.0,0.0,25.5,0.0,81.8,0.0
2022-12-05 00:36:00,115940,0.0,0.0,0.0,0.0,25.72,0.0,83.1,0.0
2022-12-05 00:37:00,115941,0.0,0.0,0.0,0.0,25.89,0.0,82.9,0.0
2022-12-05 00:38:00,115942,0.0,0.669,0.0,0.0,25.88,0.0,82.8,0.0
2022-12-05 00:39:00,115943,0.0,0.0,0.0,0.0,25.89,0.0,82.2,0.0
2022-12-05 00:40:00,115944,0.0,0.0,0.0,0.0,25.72,0.0,81.9,0.0
2022-12-05 00:41:00,115945,0.0,0.0,0.0,0.0,25.61,0.0,82.1,0.0
2022-12-05 00:42:00,115946,0.0,0.0,0.0,0.0,25.58,0.0,82.2,0.0
2022-12-05 00:43:00,115947,0.0,0.0,0.0,0.0,25.47,0.0,82.3,0.0
2022-12-05 00:44:00,115948,0.0,0.0,0.0,0.0,25.42,0.0,82.7,0.0
2022-12-05 00:45:00,115949,0.0,0.0,0.0,0.0,25.34,0.0,82.7,0.0
2022-12-05 00:46:00,115950,0.0,0.0,0.0,0.0,25.29,0.0,82.8,0.0
2022-12-05 00:47:00,115951,0.0,0.0,0.0,0.0,25.23,0.0,82.9,0.0
2022-12-05 00:48:00,115952,0.0,0.0,0.0,0.0,25.2,0.0,83.1,0.0
2022-12-05 00:49:00,115953,0.0,0.0,0.0,0.0,25.17,0.0,83.4,0.0
2022-12-05 00:50:00,115954,0.0,0.669,0.0,0.0,25.17,0.0,83.3,0.0
2022-12-05 00:51:00,115955,0.0,0.0,0.0,0.0,25.14,0.0,83.3,0.0
2022-12-05 00:52:00,115956,0.0,0.0,0.0,0.0,25.12,0.0,83.5,0.0
2022-12-05 00:53:00,115957,0.0,0.0,0.0,0.0,25.07,0.0,83.5,0.0
2022-12-05 00:54:00,115958,0.0,0.669,0.0,0.0,25.07,0.0,83.7,0.0
2022-12-05 00:55:00,115959,0.0,0.669,0.0,0.0,25.06,0.0,84.0,0.0
2022-12-05 00:56:00,115960,0.0,0.0,0.0,0.0,25.07,0.0,83.5,0.0
2022-12-05 00:57:00,115961,0.0,0.0,0.0,0.0,24.9,0.0,83.3,0.0
2022-12-05 00:58:00,115962,0.0,0.669,0.0,0.0,24.79,0.0,83.2,0.0
2022-12-05 00:59:00,115963,0.0,0.0,0.0,0.0,24.71,0.0,83.4,0.0
2022-12-05 01:00:00,115964,0.0,0.0,0.0,0.0,24.63,0.0,83.8,0.0
2022-12-05 01:01:00,115965,0.0,0.0,0.0,0.0,24.63,0.0,83.9,0.0
2022-12-05 01:02:00,115966,0.0,0.0,0.0,0.0,24.63,0.0,84.0,0.0
2022-12-05 01:03:00,115967,0.0,0.669,0.0,0.0,24.63,0.0,84.3,0.0
2022-12-05 01:04:00,115968,0.0,0.0,0.0,0.0,24.63,0.0,84.5,0.0
2022-12-05 01:05:00,115969,0.0,0.0,0.0,0.0,24.63,0.0,84.7,0.0
2022-12-05 01:06:00,115970,0.0,0.669,0.0,0.0,24.63,0.0,84.8,0.0
2022-12-05 01:07:00,115971,0.0,0.0,0.0,0.0,24.63,0.0,84.8,0.0
2022-12-05 01:08:00,115972,0.0,0.669,0.0,0.0,24.63,0.0,84.6,0.0
2022-12-05 01:09:00,115973,0.0,0.0,0.0,0.0,24.6,0.0,84.5,0.0
2022-12-05 01:10:00,115974,0.0,0.669,0.0,0.0,24.58,0.0,84.6,0.0
2022-12-05 01:11:00,115975,0.0,0.0,0.0,0.0,24.52,0.0,84.7,0.0
2022-12-05 01:12:00,115976,0.0,0.0,0.0,0.0,24.49,0.0,84.8,0.0
2022-12-05 01:13:00,115977,0.0,0.669,0.0,0.0,24.52,0.0,85.2,0.0
2022-12-05 01:14:00,115978,0.0,0.669,0.0,0.0,24.57,0.0,85.3,0.0
2022-12-05 01:15:00,115979,0.0,0.0,0.0,0.0,24.57,0.0,85.1,0.0
2022-12-05 01:16:00,115980,0.0,0.0,0.0,0.0,24.57,0.0,85.1,0.0
2022-12-05 01:17:00,115981,0.0,0.0,0.0,0.0,24.57,0.0,85.2,0.0
2022-12-05 01:18:00,115982,0.0,0.669,0.0,0.0,24.57,0.0,85.2,0.0
2022-12-05 01:19:00,115983,0.0,0.669,0.0,0.0,24.57,0.0,85.4,0.0
2022-12-05 01:20:00,115984,0.0,0.669,0.0,0.0,24.57,0.0,85.2,0.0
2022-12-05 01:21:00,115985,0.0,0.669,0.0,0.0,24.57,0.0,85.0,0.0
2022-12-05 01:22:00,115986,0.0,0.0,0.0,0.0,24.52,0.0,85.1,0.0
2022-12-05 01:23:00,115987,0.0,0.669,0.0,0.0,24.52,0.0,85.4,0.0
2022-12-05 01:24:00,115988,0.0,0.0,0.0,0.0,24.52,0.0,85.2,0.0
2022-12-05 01:25:00,115989,0.0,0.0,0.0,0.0,24.52,0.0,85.4,0.0
2022-12-05 01:26:00,115990,0.0,0.669,0.0,0.0,24.63,0.0,86.5,0.0
2022-12-05 01:27:00,115991,0.0,0.669,0.0,0.0,24.88,0.0,87.2,0.0
2022-12-05 01:28:00,115992,0.0,0.0,0.0,0.0,25.23,0.0,86.9,0.0
2022-12-05 01:29:00,115993,0.0,0.669,0.0,0.0,25.45,0.0,86.7,0.0
2022-12-05 01:30:00,115994,0.0,0.669,0.0,0.0,25.48,0.0,85.3,0.0
2022-12-05 01:31:00,115995,0.0,0.669,0.0,0.0,25.4,0.0,84.8,0.0
2022-12-05 01:32:00,115996,0.0,0.0,0.0,0.0,25.23,0.0,84.0,0.0
2022-12-05 01:33:00,115997,0.0,0.669,0.0,0.0,25.07,0.0,83.9,0.0
2022-12-05 01:34:00,115998,0.0,0.669,0.0,0.0,24.9,0.0,84.3,0.0
2022-12-05 01:35:00,115999,0.0,0.0,0.0,0.0,24.77,0.0,84.3,0.0
2022-12-05 01:36:00,116000,0.0,0.0,0.0,0.0,24.58,0.0,84.6,0.0
2022-12-05 01:37:00,116001,0.0,0.0,0.0,0.0,24.46,0.0,84.8,0.0
2022-12-05 01:38:00,116002,0.0,0.0,0.0,0.0,24.41,0.0,85.4,0.0
2022-12-05 01:39:00,116003,0.0,0.669,0.0,0.0,24.3,0.0,85.0,0.0
2022-12-05 01:40:00,116004,0.0,0.669,0.0,0.0,24.2,0.0,85.1,0.0
2022-12-05 01:41:00,116005,0.0,0.0,0.0,0.0,24.06,0.0,85.1,0.0
2022-12-05 01:42:00,116006,0.0,0.669,0.0,0.0,23.92,0.0,85.2,0.0
2022-12-05 01:43:00,116007,0.0,0.0,0.0,0.0,23.87,0.0,85.4,0.0
2022-12-05 01:44:00,116008,0.0,0.0,0.0,0.0,23.76,0.0,85.8,0.0
2022-12-05 01:45:00,116009,0.0,0.0,0.0,0.0,23.76,0.0,86.1,0.0
2022-12-05 01:46:00,116010,0.0,0.0,0.0,0.0,23.76,0.0,86.8,0.0
2022-12-05 01:47:00,116011,0.0,0.0,0.0,0.0,23.92,0.0,87.4,0.0
2022-12-05 01:48:00,116012,0.0,0.0,0.0,0.0,24.11,0.0,87.7,0.0
2022-12-05 01:49:00,116013,0.0,0.0,0.0,0.0,24.16,0.0,87.7,0.0
2022-12-05 01:50:00,116014,0.0,0.0,0.0,0.0,24.41,0.0,88.5,0.0
2022-12-05 01:51:00,116015,0.0,0.669,0.0,0.0,24.63,0.0,88.4,0.0
2022-12-05 01:52:00,116016,0.0,0.0,0.0,0.0,24.83,0.0,87.9,0.0
2022-12-05 01:53:00,116017,0.0,0.0,0.0,0.0,24.96,0.0,87.7,0.0
2022-12-05 01:54:00,116018,0.0,0.669,0.0,0.0,25.02,0.0,86.7,0.0
2022-12-05 01:55:00,116019,0.0,0.0,0.0,0.0,24.96,0.0,87.0,0.0
2022-12-05 01:56:00,116020,0.0,0.669,0.0,0.0,24.99,0.0,86.1,0.0
2022-12-05 01:57:00,116021,0.0,0.0,0.0,0.0,24.8,0.0,85.2,0.0
2022-12-05 01:58:00,116022,0.0,0.0,0.0,0.0,24.58,0.0,85.1,0.0
2022-12-05 01:59:00,116023,0.0,0.0,0.0,0.0,24.36,0.0,85.2,0.0
2022-12-05 02:00:00,116024,0.0,0.669,0.0,0.0,24.2,0.0,85.2,0.0
2022-12-05 02:01:00,116025,0.0,0.0,0.0,0.0,24.09,0.0,85.4,0.0
2022-12-05 02:02:00,116026,0.0,0.0,0.0,0.0,24.03,0.0,85.7,0.0
2022-12-05 02:03:00,116027,0.0,0.0,0.0,0.0,23.95,0.0,86.3,0.0
2022-12-05 02:04:00,116028,0.0,0.0,0.0,0.0,24.03,0.0,87.3,0.0
2022-12-05 02:05:00,116029,0.0,0.669,0.0,0.0,24.17,0.0,86.7,0.0
2022-12-05 02:06:00,116030,0.0,0.0,0.0,0.0,24.09,0.0,86.2,0.0
2022-12-05 02:07:00,116031,0.0,0.669,0.0,0.0,23.98,0.0,86.1,0.0
2022-12-05 02:08:00,116032,0.0,0.0,0.0,0.0,23.92,0.0,86.3,0.0
2022-12-05 02:09:00,116033,0.0,0.0,0.0,0.0,23.92,0.0,86.5,0.0
2022-12-05 02:10:00,116034,0.0,0.0,0.0,0.0,23.98,0.0,87.4,0.0
2022-12-05 02:11:00,116035,0.0,0.0,0.0,0.0,24.2,0.0,88.0,0.0
2022-12-05 02:12:00,116036,0.0,0.0,0.0,0.0,24.31,0.0,87.3,0.0
2022-12-05 02:13:00,116037,0.0,0.669,0.0,0.0,24.3,0.0,86.9,0.0
2022-12-05 02:14:00,116038,0.0,0.669,0.0,0.0,24.25,0.0,86.6,0.0
2022-12-05 02:15:00,116039,0.0,0.0,0.0,0.0,24.3,0.0,87.3,0.0
2022-12-05 02:16:00,116040,0.0,0.0,0.0,0.0,24.52,0.0,88.2,0.0
2022-12-05 02:17:00,116041,0.0,0.669,0.0,0.0,24.88,0.0,88.4,0.0
2022-12-05 02:18:00,116042,0.0,0.0,0.0,0.0,24.96,0.0,87.4,0.0
2022-12-05 02:19:00,116043,0.0,0.669,0.0,0.0,25.02,0.0,86.6,0.0
2022-12-05 02:20:00,116044,0.0,0.0,0.0,0.0,25.02,0.0,86.3,0.0
2022-12-05 02:21:00,116045,0.0,0.669,0.0,0.0,24.96,0.0,85.5,0.0
2022-12-05 02:22:00,116046,0.0,0.0,0.0,0.0,24.69,0.0,84.6,0.0
2022-12-05 02:23:00,116047,0.0,0.0,0.0,0.0,24.39,0.0,84.5,0.0
2022-12-05 02:24:00,116048,0.0,0.669,0.0,0.0,24.09,0.0,85.0,0.0
2022-12-05 02:25:00,116049,0.0,0.0,0.0,0.0,23.87,0.0,85.2,0.0
2022-12-05 02:26:00,116050,0.0,0.0,0.0,0.0,23.73,0.0,85.5,0.0
2022-12-05 02:27:00,116051,0.0,0.669,0.0,0.0,23.7,0.0,86.7,0.0
2022-12-05 02:28:00,116052,0.0,0.0,0.0,0.0,23.73,0.0,86.8,0.0
2022-12-05 02:29:00,116053,0.0,0.669,0.0,0.0,23.75,0.0,86.8,0.0
2022-12-05 02:30:00,116054,0.0,0.0,0.0,0.0,23.73,0.0,86.5,0.0
2022-12-05 02:31:00,116055,0.0,0.0,0.0,0.0,23.65,0.0,86.3,0.0
2022-12-05 02:32:00,116056,0.0,0.669,0.0,0.0,23.54,0.0,86.4,0.0
2022-12-05 02:33:00,116057,0.0,0.669,0.0,0.0,23.43,0.0,86.2,0.0
2022-12-05 02:34:00,116058,0.0,0.669,0.0,0.0,23.32,0.0,86.3,0.0
2022-12-05 02:35:00,116059,0.0,0.0,0.0,0.0,23.26,0.0,86.5,0.0
2022-12-05 02:36:00,116060,0.0,0.0,0.0,0.0,23.16,0.0,86.6,0.0
2022-12-05 02:37:00,116061,0.0,0.0,0.0,0.0,23.13,0.0,86.9,0.0
2022-12-05 02:38:00,116062,0.0,0.0,0.0,0.0,23.1,0.0,86.9,0.0
2022-12-05 02:39:00,116063,0.0,0.669,0.0,0.0,23.05,0.0,86.9,0.0
2022-12-05 02:40:00,116064,0.0,0.669,0.0,0.0,23.08,0.0,87.1,0.0
2022-12-05 02:41:00,116065,0.0,0.0,0.0,0.0,23.05,0.0,87.1,0.0
2022-12-05 02:42:00,116066,0.0,0.0,0.0,0.0,23.1,0.0,87.3,0.0
2022-12-05 02:43:00,116067,0.0,0.0,0.0,0.0,23.1,0.0,87.3,0.0
2022-12-05 02:44:00,116068,0.0,0.0,0.0,0.0,23.1,0.0,87.3,0.0
2022-12-05 02:45:00,116069,0.0,0.669,0.0,0.0,23.16,0.0,87.4,0.0
2022-12-05 02:46:00,116070,0.0,0.0,0.0,0.0,23.24,0.0,88.0,0.0
2022-12-05 02:47:00,116071,0.0,0.0,0.0,0.0,23.4,0.0,88.4,0.0
2022-12-05 02:48:00,116072,0.0,0.669,0.0,0.0,23.64,0.0,89.3,0.0
2022-12-05 02:49:00,116073,0.0,0.0,0.0,0.0,23.94,0.0,88.9,0.0
2022-12-05 02:50:00,116074,0.0,0.0,0.0,0.0,24.13,0.0,88.8,0.0
2022-12-05 02:51:00,116075,0.0,0.669,0.0,0.0,24.38,0.0,88.3,0.0
2022-12-05 02:52:00,116076,0.0,0.0,0.0,0.0,24.57,0.0,88.5,0.0
2022-12-05 02:53:00,116077,0.0,0.0,0.0,0.0,24.79,0.0,88.5,0.0
2022-12-05 02:54:00,116078,0.0,0.669,0.0,0.0,25.01,0.0,87.5,0.0
2022-12-05 02:55:00,116079,0.0,0.0,0.0,0.0,25.04,0.0,86.6,0.0
2022-12-05 02:56:00,116080,0.0,0.669,0.0,0.0,24.96,0.0,85.6,0.0
2022-12-05 02:57:00,116081,0.0,0.0,0.0,0.0,24.87,0.0,85.8,0.0
2022-12-05 02:58:00,116082,0.0,0.0,0.0,0.0,24.79,0.0,85.9,0.0
2022-12-05 02:59:00,116083,0.0,0.0,0.0,0.0,24.85,0.0,86.7,0.0
2022-12-05 03:00:00,116084,0.0,0.0,0.0,0.0,24.82,0.0,85.7,0.0
2022-12-05 03:01:00,116085,0.0,0.0,0.0,0.0,24.74,0.0,85.9,0.0
2022-12-05 03:02:00,116086,0.0,0.0,0.0,0.0,24.73,0.0,86.1,0.0
2022-12-05 03:03:00,116087,0.0,0.0,0.0,0.0,24.73,0.0,86.1,0.0
2022-12-05 03:04:00,116088,0.0,0.669,0.0,0.0,24.74,0.0,85.9,0.0
2022-12-05 03:05:00,116089,0.0,0.0,0.0,0.0,24.74,0.0,86.3,0.0
2022-12-05 03:06:00,116090,0.0,0.669,0.0,0.0,24.74,0.0,85.8,0.0
2022-12-05 03:07:00,116091,0.0,0.0,0.0,0.0,24.71,0.0,85.5,0.0
2022-12-05 03:08:00,116092,0.0,0.0,0.0,0.0,24.57,0.0,85.4,0.0
2022-12-05 03:09:00,116093,0.0,0.669,0.0,0.0,24.52,0.0,85.3,0.0
2022-12-05 03:10:00,116094,0.0,0.0,0.0,0.0,24.41,0.0,85.2,0.0
2022-12-05 03:11:00,116095,0.0,0.0,0.0,0.0,24.3,0.0,85.0,0.0
2022-12-05 03:12:00,116096,0.0,0.0,0.0,0.0,24.19,0.0,85.7,0.0
2022-12-05 03:13:00,116097,0.0,0.0,0.0,0.0,24.27,0.0,85.9,0.0
2022-12-05 03:14:00,116098,0.0,0.0,0.0,0.0,24.22,0.0,85.8,0.0
2022-12-05 03:15:00,116099,0.0,0.0,0.0,0.0,24.3,0.0,86.6,0.0
2022-12-05 03:16:00,116100,0.0,0.0,0.0,0.0,24.36,0.0,86.1,0.0
2022-12-05 03:17:00,116101,0.0,0.0,0.0,0.0,24.41,0.0,86.3,0.0
2022-12-05 03:18:00,116102,0.0,0.0,0.0,0.0,24.41,0.0,86.5,0.0
2022-12-05 03:19:00,116103,0.0,0.0,0.0,0.0,24.44,0.0,86.1,0.0
2022-12-05 03:20:00,116104,0.0,0.0,0.0,0.0,24.63,0.0,86.6,0.0
2022-12-05 03:21:00,116105,0.0,0.669,0.0,0.0,24.74,0.0,86.3,0.0
2022-12-05 03:22:00,116106,0.0,0.669,0.0,0.0,24.74,0.0,86.0,0.0
2022-12-05 03:23:00,116107,0.0,0.0,0.0,0.0,24.74,0.0,85.4,0.0
2022-12-05 03:24:00,116108,0.0,0.0,0.0,0.0,24.79,0.0,86.6,0.0
2022-12-05 03:25:00,116109,0.0,0.0,0.0,0.0,24.96,0.0,86.1,0.0
2022-12-05 03:26:00,116110,0.0,0.0,0.0,0.0,24.96,0.0,85.4,0.0
2022-12-05 03:27:00,116111,0.0,0.0,0.0,0.0,24.9,0.0,84.8,0.0
2022-12-05 03:28:00,116112,0.0,0.0,0.0,0.0,24.8,0.0,85.1,0.0
2022-12-05 03:29:00,116113,0.0,0.0,0.0,0.0,24.91,0.0,85.6,0.0
2022-12-05 03:30:00,116114,0.0,0.0,0.0,0.0,24.93,0.0,85.5,0.0
2022-12-05 03:31:00,116115,0.0,0.669,0.0,0.0,24.96,0.0,85.3,0.0
2022-12-05 03:32:00,116116,0.0,0.669,0.0,0.0,24.99,0.0,85.2,0.0
2022-12-05 03:33:00,116117,0.0,0.669,0.0,0.0,25.01,0.0,85.0,0.0
2022-12-05 03:34:00,116118,0.0,0.669,0.0,0.0,25.02,0.0,85.0,0.0
2022-12-05 03:35:00,116119,0.0,0.0,0.0,0.0,25.02,0.0,84.8,0.0
2022-12-05 03:36:00,116120,0.0,0.669,0.0,0.0,24.99,0.0,84.6,0.0
2022-12-05 03:37:00,116121,0.0,0.0,0.0,0.0,24.88,0.0,84.2,0.0
2022-12-05 03:38:00,116122,0.0,0.0,0.0,0.0,24.74,0.0,84.2,0.0
2022-12-05 03:39:00,116123,0.0,0.0,0.0,0.0,24.66,0.0,84.6,0.0
2022-12-05 03:40:00,116124,0.0,0.0,0.0,0.0,24.63,0.0,84.4,0.0
2022-12-05 03:41:00,116125,0.0,0.0,0.0,0.0,24.52,0.0,83.9,0.0
2022-12-05 03:42:00,116126,0.0,0.0,0.0,0.0,24.41,0.0,84.1,0.0
2022-12-05 03:43:00,116127,0.0,0.0,0.0,0.0,24.3,0.0,83.9,0.0
2022-12-05 03:44:00,116128,0.0,0.669,0.0,0.0,24.14,0.0,83.7,0.0
2022-12-05 03:45:00,116129,0.0,0.0,0.0,0.0,23.98,0.0,83.8,0.0
2022-12-05 03:46:00,116130,0.0,0.0,0.0,0.0,23.86,0.0,83.7,0.0
2022-12-05 03:47:00,116131,0.0,0.0,0.0,0.0,23.68,0.0,83.9,0.0
2022-12-05 03:48:00,116132,0.0,0.0,0.0,0.0,23.54,0.0,83.9,0.0
2022-12-05 03:49:00,116133,0.0,0.669,0.0,0.0,23.38,0.0,84.1,0.0
2022-12-05 03:50:00,116134,0.0,0.669,0.0,0.0,23.32,0.0,85.6,0.0
2022-12-05 03:51:00,116135,0.0,0.669,0.0,0.0,23.43,0.0,85.6,0.0
2022-12-05 03:52:00,116136,0.0,0.669,0.0,0.0,23.48,0.0,86.1,0.0
2022-12-05 03:53:00,116137,1.656,0.0,1.656,0.0,23.54,0.0,86.2,21.76
2022-12-05 03:54:00,116138,1.149,0.0,1.149,0.0,23.54,0.0,85.9,241.6
2022-12-05 03:55:00,116139,1.358,0.0,1.358,0.0,23.59,0.0,86.5,283.4
2022-12-05 03:56:00,116140,1.567,0.0,1.567,0.0,23.65,0.0,85.9,13.37
2022-12-05 03:57:00,116141,1.447,0.0,1.447,0.014,23.62,0.0,85.6,18.73
2022-12-05 03:58:00,116142,1.567,0.669,1.567,0.0,23.54,0.0,85.6,176.5
2022-12-05 03:59:00,116143,1.477,0.669,1.477,0.0,23.4,0.0,85.4,98.7
2022-12-05 04:00:00,116144,0.0,0.0,0.0,0.0,23.32,0.0,85.9,0.0
2022-12-05 04:01:00,116145,0.0,0.0,0.0,0.0,23.27,0.0,85.9,0.0
2022-12-05 04:02:00,116146,0.0,0.669,0.0,0.0,23.24,0.0,85.9,0.0
2022-12-05 04:03:00,116147,0.0,0.0,0.0,0.0,23.19,0.0,85.9,0.0
2022-12-05 04:04:00,116148,0.0,0.0,0.0,0.0,23.16,0.0,85.9,0.0
2022-12-05 04:05:00,116149,0.0,0.0,0.0,0.0,23.08,0.0,85.8,0.0
2022-12-05 04:06:00,116150,0.0,0.669,0.0,0.0,23.05,0.0,86.1,0.0
2022-12-05 04:07:00,116151,0.0,0.0,0.0,0.0,22.99,0.0,86.1,0.0
2022-12-05 04:08:00,116152,0.0,0.669,0.0,0.0,23.0,0.0,86.3,0.0
2022-12-05 04:09:00,116153,1.149,0.669,1.149,0.0,22.94,0.0,86.3,223.3
2022-12-05 04:10:00,116154,1.179,0.0,1.179,0.0,22.94,0.0,86.5,237.1
2022-12-05 04:11:00,116155,1.507,0.0,1.507,0.0,23.05,0.0,87.3,243.7
2022-12-05 04:12:00,116156,2.342,0.0,2.342,0.02,23.19,0.0,87.6,202.1
2022-12-05 04:13:00,116157,1.954,0.0,1.954,0.0,23.27,0.0,87.5,225.8
2022-12-05 04:14:00,116158,2.163,0.0,2.163,0.0,23.43,0.0,87.7,304.6
2022-12-05 04:15:00,116159,2.133,0.669,2.133,0.0,23.51,0.0,87.0,296.5
2022-12-05 04:16:00,116160,1.775,0.669,1.775,0.0,23.32,0.0,86.1,321.3
2022-12-05 04:17:00,116161,0.0,0.0,0.0,0.0,23.18,0.0,85.9,0.0
2022-12-05 04:18:00,116162,0.0,0.0,0.0,0.0,23.1,0.0,86.1,0.0
2022-12-05 04:19:00,116163,0.0,0.0,0.0,0.0,22.93,0.0,85.9,0.0
2022-12-05 04:20:00,116164,0.0,0.669,0.0,0.0,22.82,0.0,85.9,0.0
2022-12-05 04:21:00,116165,0.0,0.669,0.0,0.0,22.66,0.0,86.1,0.0
2022-12-05 04:22:00,116166,1.03,0.0,1.03,0.02,22.53,0.0,86.1,329.9
2022-12-05 04:23:00,116167,0.0,0.669,0.0,0.0,22.39,0.0,86.1,0.0
2022-12-05 04:24:00,116168,1.954,0.0,1.954,0.0,22.36,0.0,87.1,240.5
2022-12-05 04:25:00,116169,2.014,0.669,2.014,0.0,22.45,0.0,87.7,293.5
2022-12-05 04:26:00,116170,1.447,0.0,1.447,0.0,22.67,0.0,88.2,234.5
2022-12-05 04:27:00,116171,1.865,0.0,1.865,0.0,22.83,0.0,88.6,313.2
2022-12-05 04:28:00,116172,2.193,0.0,2.193,0.014,23.07,0.0,88.4,180.3
2022-12-05 04:29:00,116173,1.984,0.0,1.984,0.0,23.18,0.0,88.3,320.2
2022-12-05 04:30:00,116174,2.014,0.0,2.014,0.0,23.26,0.0,87.8,252.4
2022-12-05 04:31:00,116175,2.163,0.0,2.163,0.0,23.32,0.0,88.0,297.6
2022-12-05 04:32:00,116176,1.328,0.0,1.328,0.0,23.51,0.0,88.7,292.3
2022-12-05 04:33:00,116177,0.0,0.0,0.0,0.0,23.7,0.0,88.9,0.0
2022-12-05 04:34:00,116178,0.0,0.669,0.0,0.0,23.84,0.0,87.7,0.0
2022-12-05 04:35:00,116179,0.0,0.0,0.0,0.0,23.87,0.0,87.5,0.0
2022-12-05 04:36:00,116180,0.0,0.0,0.0,0.0,23.92,0.0,87.9,0.0
2022-12-05 04:37:00,116181,0.0,0.0,0.0,0.0,24.09,0.0,88.2,0.0
2022-12-05 04:38:00,116182,0.0,0.0,0.0,0.0,24.14,0.0,87.4,0.0
2022-12-05 04:39:00,116183,0.0,0.0,0.0,0.0,24.19,0.0,87.1,0.0
2022-12-05 04:40:00,116184,1.06,0.669,1.06,0.0,24.19,0.0,87.1,259.6
2022-12-05 04:41:00,116185,0.0,0.0,0.0,0.0,24.19,0.0,87.0,0.0
2022-12-05 04:42:00,116186,0.0,0.0,0.0,0.0,24.03,0.0,85.7,0.0
2022-12-05 04:43:00,116187,0.0,0.0,0.0,0.0,23.89,0.0,85.6,0.0
2022-12-05 04:44:00,116188,0.0,0.0,0.0,0.0,23.76,0.0,85.6,0.0
2022-12-05 04:45:00,116189,0.0,0.0,0.0,0.0,23.7,0.0,86.2,0.0
2022-12-05 04:46:00,116190,0.0,0.0,0.0,0.0,23.7,0.0,86.2,0.0
2022-12-05 04:47:00,116191,1.239,0.0,1.239,0.02,23.65,0.0,86.5,184.5
2022-12-05 04:48:00,116192,1.686,0.0,1.686,0.0,23.62,0.0,86.3,234.0
2022-12-05 04:49:00,116193,1.507,0.0,1.507,0.0,23.48,0.0,85.8,266.2
2022-12-05 04:50:00,116194,1.477,0.669,1.477,0.0,23.43,0.0,86.1,236.6
2022-12-05 04:51:00,116195,0.0,0.0,0.0,0.0,23.38,0.0,86.4,0.0
2022-12-05 04:52:00,116196,0.0,0.0,0.0,0.0,23.4,0.0,86.5,0.0
2022-12-05 04:53:00,116197,0.0,0.0,0.0,0.0,23.26,0.0,85.9,0.0
2022-12-05 04:54:00,116198,0.0,0.0,0.0,0.0,23.21,0.0,86.2,0.0
2022-12-05 04:55:00,116199,0.0,0.0,0.0,0.0,23.13,0.0,86.3,0.0
2022-12-05 04:56:00,116200,0.0,0.0,0.0,0.0,23.1,0.0,86.3,0.0
2022-12-05 04:57:00,116201,0.0,0.669,0.0,0.0,23.04,0.0,86.4,0.0
2022-12-05 04:58:00,116202,0.0,0.0,0.0,0.0,23.04,0.0,86.5,0.0
2022-12-05 04:59:00,116203,0.0,0.669,0.0,0.0,22.93,0.0,86.3,0.0
2022-12-05 05:00:00,116204,0.0,0.0,0.0,0.0,22.93,0.0,86.5,0.0
2022-12-05 05:01:00,116205,0.0,0.0,0.0,0.0,22.88,0.0,86.7,0.0
2022-12-05 05:02:00,116206,0.0,0.0,0.0,0.0,22.88,0.0,86.6,0.0
2022-12-05 05:03:00,116207,0.0,0.669,0.0,0.0,22.88,0.0,86.7,0.0
2022-12-05 05:04:00,116208,0.0,0.0,0.0,0.0,22.93,0.0,87.4,0.0
2022-12-05 05:05:00,116209,0.0,0.0,0.0,0.0,23.15,0.0,88.0,0.0
2022-12-05 05:06:00,116210,0.0,0.669,0.0,0.0,23.26,0.0,87.4,0.0
2022-12-05 05:07:00,116211,0.0,0.0,0.0,0.0,23.18,0.0,86.2,0.0
2022-12-05 05:08:00,116212,0.0,0.669,0.0,0.0,23.04,0.0,86.0,0.0
2022-12-05 05:09:00,116213,0.0,0.669,0.0,0.0,22.88,0.0,86.0,0.0
2022-12-05 05:10:00,116214,0.0,0.0,0.0,0.0,22.82,0.0,86.8,0.0
2022-12-05 05:11:00,116215,0.0,0.669,0.0,0.0,22.82,0.0,86.5,0.0
2022-12-05 05:12:00,116216,0.0,0.669,0.0,0.0,22.63,0.0,86.0,0.0
2022-12-05 05:13:00,116217,0.0,0.0,0.0,0.0,22.44,0.0,85.7,0.0
2022-12-05 05:14:00,116218,0.0,0.0,0.0,0.0,22.22,0.0,85.9,0.0
2022-12-05 05:15:00,116219,0.0,0.0,0.0,0.0,22.09,0.0,86.1,0.0
2022-12-05 05:16:00,116220,0.0,0.0,0.0,0.0,22.01,0.0,86.5,0.0
2022-12-05 05:17:00,116221,0.0,0.669,0.0,0.0,21.95,0.0,86.9,0.0
2022-12-05 05:18:00,116222,0.0,0.0,0.0,0.0,21.95,0.0,87.4,0.0
2022-12-05 05:19:00,116223,0.0,0.0,0.0,0.0,22.11,0.0,88.1,0.0
2022-12-05 05:20:00,116224,0.0,0.669,0.0,0.0,22.22,0.0,88.0,0.0
2022-12-05 05:21:00,116225,0.0,0.0,0.0,0.0,22.33,0.0,88.2,0.0
2022-12-05 05:22:00,116226,0.0,0.0,0.0,0.0,22.44,0.0,88.2,0.0
2022-12-05 05:23:00,116227,0.0,0.0,0.0,0.0,22.61,0.0,88.7,0.0
2022-12-05 05:24:00,116228,0.0,0.0,0.0,0.0,22.77,0.0,88.6,0.0
2022-12-05 05:25:00,116229,0.0,0.0,0.0,0.0,22.83,0.0,87.9,0.0
2022-12-05 05:26:00,116230,0.0,0.0,0.0,0.0,22.85,0.0,88.1,0.0
2022-12-05 05:27:00,116231,0.0,0.669,0.0,0.0,22.88,0.0,87.8,0.0
2022-12-05 05:28:00,116232,0.0,0.0,0.0,0.0,22.93,0.0,87.8,0.0
2022-12-05 05:29:00,116233,0.0,0.0,0.0,0.0,23.05,0.0,88.1,0.0
2022-12-05 05:30:00,116234,0.0,0.0,0.0,0.0,23.13,0.0,87.7,0.0
2022-12-05 05:31:00,116235,0.0,0.0,0.0,0.0,23.07,0.0,87.1,0.0
2022-12-05 05:32:00,116236,0.0,0.0,0.0,0.0,23.05,0.0,87.3,0.0
2022-12-05 05:33:00,116237,0.0,0.669,0.0,0.0,23.15,0.0,87.9,0.0
2022-12-05 05:34:00,116238,0.0,0.0,0.0,0.0,23.32,0.0,87.9,0.0
2022-12-05 05:35:00,116239,0.0,0.0,0.0,0.0,23.32,0.0,87.4,0.0
2022-12-05 05:36:00,116240,0.0,0.0,0.0,0.0,23.32,0.0,86.9,0.0
2022-12-05 05:37:00,116241,0.0,0.0,0.0,0.0,23.26,0.0,86.5,0.0
2022-12-05 05:38:00,116242,0.0,0.669,0.0,0.0,23.21,0.0,86.5,0.0
2022-12-05 05:39:00,116243,0.0,0.0,0.0,0.0,23.13,0.0,86.5,0.0
2022-12-05 05:40:00,116244,0.0,0.0,0.0,0.0,23.18,0.0,87.1,0.0
2022-12-05 05:41:00,116245,0.0,0.0,0.0,0.0,23.26,0.0,87.0,0.0
2022-12-05 05:42:00,116246,0.0,0.0,0.0,0.0,23.26,0.0,86.5,0.0
2022-12-05 05:43:00,116247,0.0,0.0,0.0,0.0,23.18,0.0,86.7,0.0
2022-12-05 05:44:00,116248,0.0,0.0,0.0,0.0,23.21,0.0,86.8,0.0
2022-12-05 05:45:00,116249,0.0,0.0,0.0,0.0,23.15,0.0,86.5,0.0
2022-12-05 05:46:00,116250,0.0,0.0,0.0,0.0,23.15,0.0,87.0,0.0
2022-12-05 05:47:00,116251,0.0,0.0,0.0,0.0,23.15,0.0,86.6,0.0
2022-12-05 05:48:00,116252,0.0,0.669,0.0,0.0,23.07,0.0,86.1,0.0
2022-12-05 05:49:00,116253,0.0,0.0,0.0,0.0,22.96,0.0,86.1,0.0
2022-12-05 05:50:00,116254,0.0,0.0,0.0,0.0,22.88,0.0,86.3,0.0
2022-12-05 05:51:00,116255,0.0,0.0,0.0,0.0,22.8,0.0,86.3,0.0
2022-12-05 05:52:00,116256,0.0,0.0,0.0,0.0,22.83,0.0,86.9,0.0
2022-12-05 05:53:00,116257,0.0,0.0,0.0,0.0,22.89,0.0,87.3,0.0
2022-12-05 05:54:00,116258,0.0,0.0,0.0,0.0,23.0,0.0,87.1,0.0
2022-12-05 05:55:00,116259,0.0,0.669,0.0,0.0,23.0,0.0,86.8,0.0
2022-12-05 05:56:00,116260,0.0,0.0,0.0,0.0,22.94,0.0,86.8,0.0
2022-12-05 05:57:00,116261,0.0,0.0,0.0,0.0,22.94,0.0,86.9,0.0
2022-12-05 05:58:00,116262,0.0,0.0,0.0,0.0,22.94,0.0,86.7,0.0
2022-12-05 05:59:00,116263,0.0,0.0,0.0,0.0,22.94,0.0,86.8,0.0
2022-12-05 06:00:00,116264,0.0,0.669,0.0,0.0,23.05,0.0,86.9,0.0
2022-12-05 06:01:00,116265,0.0,0.0,0.0,0.0,23.04,0.0,86.9,0.0
2022-12-05 06:02:00,116266,0.0,0.669,0.0,0.0,23.1,0.0,87.0,0.0
2022-12-05 06:03:00,116267,0.0,0.0,0.0,0.0,23.1,0.0,87.0,0.0
2022-12-05 06:04:00,116268,1.03,0.0,1.03,0.0,23.21,0.0,87.2,249.4
2022-12-05 06:05:00,116269,0.0,0.0,0.0,0.0,23.29,0.0,87.1,0.0
2022-12-05 06:06:00,116270,0.0,0.0,0.0,0.0,23.4,0.0,87.3,0.0
2022-12-05 06:07:00,116271,0.0,0.0,0.0,0.0,23.51,0.0,87.6,0.0
2022-12-05 06:08:00,116272,0.0,0.669,0.0,0.0,23.64,0.0,87.6,0.0
2022-12-05 06:09:00,116273,0.0,0.0,0.0,0.0,23.86,0.0,87.6,0.0
2022-12-05 06:10:00,116274,0.0,0.0,0.0,0.0,23.94,0.0,87.1,0.0